Date,TemperatureHighF,TemperatureAvgF,TemperatureLowF,DewpointHighF,DewpointAvgF,DewpointLowF,HumidityHigh,HumidityAvg,HumidityLow,PressureMaxIn,PressureMinIn,WindSpeedMaxMPH,WindSpeedAvgMPH,GustSpeedMaxMPH,PrecipitationSumIn
2013-2-1,40.0,35.0,27.3,-99.9,-99.9,-99.9,0,0,100,28.74,28.32,19,9,0,0.00
2013-2-2,46.5,32.5,25.2,-99.9,-99.9,-99.9,0,0,100,29.11,28.75,13,5,0,0.00
2013-2-3,48.7,40.5,31.7,-99.9,-99.9,-99.9,0,0,100,28.95,28.46,22,12,0,0.00
2013-2-4,44.7,34.1,27.3,-99.9,-99.9,-99.9,0,0,100,28.54,28.29,23,11,0,0.00
2013-2-5,47.2,32.8,26.1,-99.9,-99.9,-99.9,0,0,100,28.51,28.03,23,2,0,0.00
2013-2-6,45.6,34.8,29.5,-99.9,-99.9,-99.9,0,0,100,29.05,28.51,25,4,0,0.00
2013-2-7,39.5,32.3,27.0,-99.9,-99.9,-99.9,0,0,100,29.04,28.91,10,4,0,0.00
2013-2-8,46.5,35.5,30.0,-99.9,-99.9,-99.9,0,0,100,29.08,28.98,15,5,0,0.00
2013-2-9,38.8,34.7,32.9,-99.9,-99.9,-99.9,0,0,100,29.05,28.73,6,-7,0,0.00
2013-2-10,34.4,21.6,31.4,-99.9,-99.9,-99.9,0,0,100,28.73,28.35,22,-340,0,0.00
2013-2-11,46.0,33.2,28.5,-99.9,-99.9,-99.9,0,0,100,28.86,28.42,20,10,0,0.00
2013-2-12,30.5,29.5,27.4,-99.9,-99.9,-99.9,0,0,100,29.00,28.86,10,-18,0,0.00
2013-2-13,37.0,33.1,28.3,-99.9,-99.9,-99.9,0,0,100,28.87,28.50,17,1,0,0.00
2013-2-14,49.5,39.7,35.2,-99.9,-99.9,-99.9,0,0,100,28.67,28.51,13,5,0,0.00
2013-2-15,37.1,32.6,28.4,-99.9,-99.9,-99.9,0,0,100,29.05,29.03,7,-35,0,0.00
2013-2-16,46.2,38.7,28.4,-99.9,-99.9,-99.9,0,0,100,29.05,29.02,12,3,0,0.00
2013-2-17,40.7,35.3,29.3,-99.9,-99.9,-99.9,0,0,100,29.04,29.01,10,-7,0,0.00
2013-2-18,59.9,36.4,26.3,-99.9,-99.9,-99.9,0,0,100,29.05,29.01,9,3,0,0.00
2013-2-19,30.5,27.8,25.2,-99.9,-99.9,-99.9,0,0,100,29.04,29.03,8,1,0,0.00
2013-2-21,30.6,30.2,29.6,-99.9,-99.9,-99.9,0,0,100,29.20,29.19,13,-13,0,0.00
2013-2-22,33.7,30.6,28.6,-99.9,-99.9,-99.9,0,0,100,29.22,29.17,12,4,0,0.00
2013-2-23,29.4,29.0,28.5,-99.9,-99.9,-99.9,0,0,100,29.20,29.17,11,5,0,0.00
2013-2-24,43.7,34.3,30.9,-99.9,-99.9,-99.9,0,0,100,29.39,29.31,13,4,0,0.00
2013-2-25,45.6,33.8,28.1,-99.9,-99.9,-99.9,0,0,100,29.52,29.39,15,4,0,0.00
2013-2-27,41.9,34.2,30.6,-99.9,-99.9,-99.9,0,0,100,29.52,29.50,12,-36,0,0.00
2013-2-28,60.6,38.8,26.0,-99.9,-99.9,-99.9,0,0,100,29.50,29.42,10,-1,0,0.00